Probability
0 0 0 0 0 0 0 0 0 0 0 0 0 0 0 0 0 0 0 0 0 0 0 0 0 0 0 0 0 0 0 0 0 0 0 0 0 0
0 0 0 0 0 0 0 0 0 0 0 0 0 0 0 0 0 0 0 0 0 0 0 0 0 0 0 0 0 0 0 0 0 0 0 0 0 0
0 0 0 0 0 0 0 0 0 0 0 0 0 0 0 0 0 0 0 0 0 0 0 0 0 0 0 0 0 0 0 0 0 0 0 0 0 0
0 0 0 0 0 0 0 0 0 0 0 0 0 0 0 0 0 0 0 0 0 0 0 0 0 0 0 0 0 0 0 0 0 0 0 0 0 0
0 0 0 0 0 0 0 0 0 0 0 0 0 0 0 0 0 0 0 0 0 0 0 0 0 0 0 0 0 0 0 0 0 0 0 0 0 0
0 0 0 0 0 0 0 0 0 0 0 0 0 0 0 0 0 0 0 0 0 0 0 0 0 0 0 0 0 0 0 0 0 0 0 0 0 0
0 0 0 0 0 0 0 0 0 0 0 0 0 0 0 0 0 0 0 0 0 0 0 0 0 0 0 0 0 0 0 0 0 0 0 0 0 0
0 0 0 0 0 0 0 0 0 0 0 0 0 0 0 0 0 0 0 0 0 0 0 0 0 0 0 0 0 0 0 0 0 0 0 0 0 0
0 0 0 0 0 0 0 0 0 0 0 0 0 0 0 0 0 0 0 0 0 0 0 0 0 0 0 0 0 0 0 0 0 0 0 0 0 0
0 0 0 0 0 0 0 0 0 0 0 0 0 0 0 0 0 0 0 0 0 0 0 0 0 0 0 0 0 0 0 0 0 0 0 0 0 0
0 0 0 0 0 0 0 0 0 0 0 0 0 0 0 0 0 0 0 0 0 0 0 0 0 0 0 0 0 0 0 0 0 0 0 0 0 0
0 0 0 0 0 0 0 0 0 0 0 0 0 0 0 0 0 0 0 0 0 0 0 0 0 0 0 0 0 0 0 0 0 0 0 0 0 0
0 0 0 0 0 0 0 0 0 0 0 0 0 0 0 0 0 0 0 0 0 0 0 0 0 0 0 0 0 0 0 0 0 0 0 0 0 0
0 0 0 0 0 0 0 0 0 0 0 0 0 0 0 0 0 0 0 0 0 0 0 0 0 0 0 0 0 0 0 0 0 0 0 0 0 0
0 0 0 0 0 0 0 0 0 0 0 0 0 0 0 0 0 0 0 0 0 0 0 0 0 0 0 0 0 0 0 0 0 0 0 0 0 0
0 0 0 0 0 0 0 0 0 0 0 0 0 0 0 0 0 0 0 0 0 0 0 0 0 0 0 0 0 0 0 0 0 0 0 0 0 0
0 0 0 0 0 0 0 0 0 0 0 0 0 0 0 0 0 0 0 0 0 0 0 0 0 0 0 0 0 0 0 0 0 0 0 0 0 0
0 0 0 0 0 0 0 0 0 0 0 0 0 0 0 0 0 0 0 0 0 0 0 0 0 0 0 0 0 0 0 0 0 0 0 0 0 0
0 0 0 0 0 0 0 0 0 0 0 0 0 0 0 0 0 0 0 0 0 0 0 0 0 0 0 0 0 0 0 0 0 0 0 0 0 0
0 0 0 0 0 0 0 0 0 0 0 0 0 0 0 0 0 0 0 0 0 0 0 0 0 0 0 0 0 0 0 0 0 0 0 0 0 0
0 0 0 0 0 0 0 0 0 0 0 0 0 0 0 0 0 0 0 0 0 0 0 0 0 0 0 0 0 0 0 0 0 0 0 0 0 0
0 0 0 0 0 0 0 0 0 0 0 0 0 0 0 0 0 0 0 0 0 0 0 0 0 0 0 0 0 0 0 0 0 0 0 0 0 0
0 0 0 0 0 0 0 0 0 0 0 0 0 0 0 0 0 0 0 0 0 0 0 0 0 0 0 0 0 0 0 0 0 0 0 0 0 0
Height
5678 5680 5682 5685 5687 5689 5691 5694 5696 5698 5700 5701 5702 5702 5703 5703 5704 5705 5706 5707 5707 5708 5708 5709 5710 5710 5710 5710 5711 5711 5711 5711 5711 5710 5710 5710 5710 5709
5664 5666 5669 5671 5673 5676 5678 5680 5682 5685 5687 5689 5690 5690 5691 5692 5692 5693 5694 5694 5695 5695 5696 5697 5697 5698 5698 5698 5698 5698 5698 5698 5698 5698 5697 5697 5697 5696
5651 5652 5655 5657 5659 5662 5664 5667 5669 5671 5673 5676 5676 5677 5678 5679 5679 5680 5681 5681 5682 5683 5683 5684 5684 5685 5685 5685 5685 5685 5685 5684 5684 5684 5684 5684 5683 5684
5637 5638 5640 5642 5645 5648 5650 5652 5655 5657 5659 5662 5663 5664 5664 5666 5667 5667 5668 5668 5669 5669 5670 5670 5671 5671 5671 5671 5671 5671 5671 5671 5671 5670 5671 5671 5670 5669
5622 5624 5626 5628 5630 5633 5635 5638 5640 5642 5645 5647 5649 5650 5651 5651 5652 5653 5654 5655 5655 5656 5656 5656 5656 5657 5657 5657 5657 5657 5657 5657 5657 5657 5656 5655 5655 5654
5606 5608 5610 5612 5615 5617 5620 5623 5625 5627 5630 5632 5634 5635 5636 5637 5637 5638 5639 5640 5641 5641 5642 5642 5642 5642 5642 5642 5643 5642 5642 5642 5641 5641 5640 5640 5640 5639
5591 5593 5595 5597 5599 5601 5604 5607 5609 5612 5614 5616 5618 5620 5621 5621 5623 5623 5624 5625 5626 5626 5627 5627 5628 5628 5628 5627 5627 5627 5627 5627 5627 5626 5625 5625 5624 5624
5575 5577 5579 5580 5582 5585 5588 5591 5593 5596 5598 5600 5602 5604 5605 5606 5607 5608 5609 5610 5612 5613 5612 5613 5612 5613 5613 5613 5612 5612 5612 5611 5611 5610 5610 5609 5608 5607
5559 5561 5563 5565 5566 5569 5571 5574 5577 5579 5582 5584 5586 5588 5590 5591 5592 5593 5593 5594 5596 5596 5596 5598 5598 5598 5598 5597 5597 5597 5596 5596 5595 5594 5594 5593 5592 5591
5543 5545 5547 5549 5551 5553 5556 5559 5561 5564 5566 5568 5570 5572 5573 5574 5575 5576 5577 5578 5580 5580 5580 5583 5583 5583 5582 5582 5581 5581 5580 5580 5579 5578 5577 5576 5575 5574
5527 5529 5531 5534 5536 5538 5541 5544 5546 5548 5549 5552 5553 5555 5556 5558 5559 5560 5561 5562 5564 5565 5564 5566 5567 5567 5567 5567 5565 5565 5564 5563 5562 5561 5560 5558 5557 5556
5511 5513 5515 5517 5519 5521 5525 5528 5531 5532 5534 5536 5538 5539 5541 5542 5543 5544 5545 5546 5547 5549 5549 5549 5550 5550 5551 5552 5550 5548 5547 5546 5544 5543 5542 5541 5540 5539
5495 5497 5499 5501 5504 5507 5509 5512 5514 5516 5518 5520 5522 5524 5525 5526 5527 5528 5528 5529 5531 5532 5533 5533 5533 5533 5533 5535 5535 5532 5530 5529 5528 5527 5526 5525 5523 5523
5480 5482 5484 5485 5488 5491 5494 5496 5498 5500 5502 5505 5507 5508 5509 5510 5511 5511 5512 5513 5514 5516 5516 5515 5516 5516 5516 5517 5517 5516 5514 5513 5512 5511 5510 5509 5508 5507
5464 5466 5468 5470 5473 5475 5478 5480 5482 5484 5486 5489 5491 5492 5494 5495 5495 5495 5496 5497 5498 5498 5498 5498 5499 5499 5499 5499 5499 5499 5498 5497 5496 5495 5494 5493 5493 5492
5448 5450 5453 5455 5457 5460 5462 5464 5467 5468 5471 5473 5475 5476 5477 5478 5479 5480 5480 5481 5482 5482 5482 5482 5482 5482 5483 5482 5482 5482 5481 5481 5481 5479 5479 5478 5478 5477
5432 5435 5437 5439 5442 5445 5448 5450 5452 5453 5455 5457 5459 5460 5461 5462 5463 5464 5465 5465 5466 5467 5467 5466 5466 5466 5466 5466 5466 5466 5466 5465 5464 5464 5464 5464 5463 5463
5417 5420 5422 5425 5428 5430 5433 5435 5437 5438 5440 5441 5442 5444 5445 5446 5447 5448 5449 5450 5451 5451 5452 5452 5451 5451 5451 5451 5451 5450 5450 5449 5449 5448 5448 5449 5450 5449
5403 5406 5408 5411 5413 5416 5418 5420 5422 5423 5424 5425 5427 5428 5429 5430 5431 5432 5433 5434 5435 5436 5436 5436 5436 5435 5436 5437 5436 5434 5434 5434 5434 5434 5434 5434 5435 5435
5389 5391 5394 5396 5399 5401 5403 5405 5406 5407 5408 5410 5411 5412 5413 5414 5415 5416 5417 5418 5419 5420 5420 5420 5420 5420 5420 5421 5421 5421 5418 5418 5419 5419 5419 5419 5420 5420
5376 5378 5380 5382 5384 5386 5387 5389 5391 5392 5393 5394 5395 5396 5397 5398 5400 5401 5402 5403 5404 5404 5405 5406 5405 5405 5404 5405 5406 5407 5405 5404 5404 5404 5405 5405 5406 5407
5362 5364 5366 5368 5369 5371 5373 5374 5375 5376 5377 5378 5379 5381 5382 5383 5384 5385 5386 5387 5388 5389 5390 5390 5390 5389 5390 5390 5391 5392 5392 5391 5390 5390 5391 5391 5391 5393
5349 5350 5352 5354 5355 5357 5358 5359 5360 5361 5362 5363 5364 5365 5366 5367 5368 5369 5370 5371 5372 5373 5374 5375 5375 5375 5375 5375 5376 5377 5377 5377 5377 5378 5378 5377 5377 5378
Wind_Speed
48 48 49 50 50 49 49 48 48 47 46 46 46 45 45 45 45 45 45 45 45 45 45 45 45 45 45 45 45 46 46 46 45 45 46 46 46 46
49 49 50 50 51 50 50 50 49 48 47 47 47 47 46 46 47 47 46 46 47 47 47 47 47 46 46 46 47 47 48 48 48 47 47 48 48 48
52 51 51 52 51 52 51 51 51 50 49 48 48 48 48 48 48 48 47 47 47 48 48 48 48 48 48 48 48 48 49 49 50 50 51 51 51 51
54 52 52 53 53 53 53 53 52 51 51 49 50 49 50 50 50 50 49 49 49 49 49 49 49 49 49 50 50 50 50 50 51 52 53 53 54 54
55 54 53 54 55 55 55 55 54 53 53 52 52 51 51 51 51 51 51 51 51 51 51 51 51 51 51 51 51 51 52 52 53 53 54 55 55 55
56 55 55 55 55 56 56 56 56 56 55 54 54 54 53 53 53 53 53 52 52 52 52 52 52 52 52 52 52 52 52 53 53 54 54 54 55 55
57 57 56 56 57 57 58 57 57 56 56 55 56 56 56 55 55 55 54 54 53 53 53 52 52 52 52 52 53 54 54 54 54 55 55 55 56 56
56 56 56 56 57 57 57 57 57 57 57 57 57 57 57 57 57 56 56 56 55 54 54 53 53 53 53 54 54 54 54 55 56 56 57 57 57 57
56 56 56 56 56 55 56 56 57 57 57 57 57 57 58 57 57 57 57 57 56 55 55 54 54 54 54 55 55 55 55 55 55 56 57 58 58 59
57 58 57 57 56 56 56 55 55 56 56 56 57 57 57 56 56 56 56 56 56 56 56 55 55 55 55 55 55 55 56 57 57 58 58 58 59 60
57 57 57 57 56 56 55 56 56 56 56 56 56 56 56 56 56 56 56 56 56 55 56 56 56 56 56 56 57 57 57 57 58 58 58 58 58 58
56 56 56 56 57 56 55 55 55 55 55 56 55 55 55 56 56 56 57 57 56 56 56 56 56 57 57 57 57 57 58 58 58 57 57 57 57 57
55 56 56 56 56 56 55 55 55 55 55 55 56 56 56 56 56 57 57 56 56 56 56 56 56 57 58 57 56 57 57 56 56 56 56 56 56 56
53 54 55 55 55 55 54 54 54 55 55 54 55 55 55 55 56 56 56 57 57 56 56 57 57 57 57 57 56 56 56 56 55 55 55 55 54 54
52 52 53 53 53 53 53 53 53 54 54 54 54 54 54 55 55 55 55 55 56 56 56 57 57 57 57 56 56 55 55 55 54 54 54 53 53 52
52 51 51 52 51 51 52 52 53 53 54 53 53 54 55 55 54 54 53 53 53 54 54 55 55 56 56 55 55 54 54 53 52 53 52 52 51 50
51 51 51 51 50 50 51 52 52 52 52 53 54 54 54 53 53 53 53 53 53 52 52 53 53 53 53 53 53 52 52 51 51 51 50 49 49 48
49 50 49 49 49 49 49 50 51 51 51 51 51 51 52 52 52 52 52 52 52 51 51 52 52 52 52 51 51 50 50 50 50 50 49 48 47 47
48 48 48 48 49 49 50 50 50 51 51 50 50 50 51 51 51 51 51 52 51 51 51 51 51 51 51 50 49 49 50 49 49 49 48 47 47 46
46 47 47 48 49 50 50 50 50 50 51 51 51 50 50 50 50 50 51 51 51 51 50 50 50 50 50 49 49 48 49 48 47 47 46 46 45 44
45 46 46 47 48 49 49 49 50 50 50 50 51 50 50 50 50 51 51 51 50 50 50 49 50 49 49 49 48 47 47 47 46 46 45 45 44 43
44 44 45 45 46 47 48 49 49 49 49 49 50 50 50 50 50 50 50 50 50 49 49 49 49 49 48 48 47 46 45 45 45 45 45 45 44 44
42 43 43 44 45 45 46 47 47 47 47 48 48 49 49 49 49 49 50 50 49 49 49 48 48 48 47 47 46 45 45 44 44 44 44 44 44 44
Wind_Direction
257 256 256 256 256 257 258 259 261 263 263 263 264 265 266 267 267 266 266 267 267 268 268 268 269 270 271 271 271 271 271 271 271 272 272 273 274 275
257 257 257 256 256 257 258 259 261 263 264 264 265 265 266 266 266 266 267 267 267 268 268 268 268 269 270 271 272 272 272 272 272 272 274 275 276 276
259 260 259 257 256 257 258 259 261 262 263 264 264 265 265 266 267 266 267 267 268 269 269 269 269 269 270 270 270 270 271 272 272 273 274 275 276 276
259 260 259 258 257 257 257 259 260 262 263 263 264 264 265 266 267 266 266 268 268 269 270 270 269 269 270 270 269 269 270 271 272 273 274 275 276 277
259 259 260 259 257 256 258 259 260 262 263 263 264 264 265 265 266 266 267 268 268 269 270 270 270 270 270 270 269 269 269 271 272 273 274 275 276 277
258 259 259 258 257 257 258 260 261 262 263 264 264 264 265 266 267 267 267 268 268 269 269 270 269 270 270 270 269 269 270 271 273 273 274 275 276 277
258 258 258 258 257 257 258 259 260 261 262 263 264 264 265 266 268 268 267 267 268 268 269 269 269 269 270 270 271 271 272 273 274 274 275 276 276 277
258 258 258 259 259 259 258 259 260 261 262 262 263 264 266 267 267 268 267 267 267 267 268 268 269 269 270 270 271 272 273 274 275 276 277 278 277 277
259 258 258 259 259 259 258 259 260 260 262 263 263 265 266 266 267 267 267 266 267 267 267 268 269 270 270 271 272 272 274 275 276 277 277 277 277 278
259 259 259 259 259 258 258 260 260 260 261 262 263 265 265 265 266 266 266 266 267 268 268 268 269 269 270 271 272 273 274 275 276 277 278 278 278 278
258 259 260 259 259 258 259 259 260 260 261 261 263 264 263 264 265 266 266 267 267 267 268 268 269 269 270 271 273 274 275 276 277 278 278 278 278 278
259 259 259 259 259 258 259 260 261 261 261 262 262 263 264 265 266 267 268 268 268 268 268 269 269 269 270 272 274 275 276 277 278 278 278 278 278 278
259 260 259 259 258 258 259 260 260 260 261 262 262 263 264 265 267 267 268 268 269 269 270 270 270 270 271 272 273 274 275 276 276 277 277 278 278 278
260 259 259 259 258 259 260 260 260 260 261 262 262 263 264 265 266 267 268 269 269 269 269 270 270 271 272 272 273 274 274 275 276 276 276 277 277 278
259 259 258 257 258 259 261 261 260 260 261 262 262 264 264 265 266 267 268 268 269 269 269 270 271 271 272 273 274 274 275 274 275 275 276 276 277 277
259 259 258 257 257 258 260 260 261 261 261 262 263 264 265 266 266 266 267 268 268 269 269 271 271 272 272 273 274 274 274 274 274 275 276 276 276 275
258 258 258 257 258 259 259 260 261 262 263 263 263 263 265 265 265 265 266 267 268 269 269 270 272 273 273 274 274 273 273 274 275 276 275 275 275 275
258 257 257 258 258 259 260 261 262 263 263 263 263 264 265 265 265 265 266 267 268 268 268 269 271 273 274 275 275 274 274 274 275 275 274 273 273 274
258 258 259 259 259 259 260 261 262 263 263 263 264 264 265 264 264 265 265 266 267 267 268 269 271 273 274 274 274 274 274 274 274 273 273 273 273 274
258 259 259 259 259 260 261 261 262 263 263 263 263 264 264 264 264 265 265 266 267 267 268 270 271 272 273 273 273 273 274 273 273 272 272 273 273 273
259 259 259 259 260 261 262 262 262 264 264 263 263 263 263 264 264 265 265 266 267 267 268 269 270 271 271 272 272 272 273 272 272 272 272 273 273 273
260 260 259 259 260 260 261 262 263 264 265 265 263 263 264 264 264 265 265 266 267 267 268 269 269 270 271 271 272 271 271 271 271 271 272 273 274 274
261 261 260 260 261 261 262 263 264 265 265 265 264 264 265 265 265 265 266 266 266 267 267 268 268 269 270 270 271 270 270 270 270 270 272 273 274 275